Weather History for Bradford, PA

Change the Weather History Date:

Monday, February 17, 2014

  Actual Average Record
Temperature  
Mean Temperature 7 °F 24 °F  
Max Temperature 25 °F 33 °F 54 °F (2006)
Min Temperature -12 °F 15 °F -22 °F (1979)
Degree Days  
Heating Degree Days 58 36  
Month to date heating degree days 816 625  
Since 1 July heating degree days 5194 5036  
Cooling Degree Days 0 0  
Month to date cooling degree days 0 0  
Year to date cooling degree days 0 0  
Moisture  
Dew Point -3 °F    
Average Humidity 58    
Maximum Humidity 87    
Minimum Humidity 29    
Precipitation  
Precipitation T in 0.08 in 0.93 in (1961)
Month to date precipitation 0.64 1.42  
Year to date precipitation 2.58 4.71  
Sea Level Pressure  
Sea Level Pressure 30.23 in    
Wind  
Wind Speed 9 mph (SE)    
Max Wind Speed 28 mph    
Max Gust Speed 38 mph    
Visibility 8 miles    
Events Snow    
T = Trace of Precipitation, MM = Missing Value Source: NWS Daily Summary

Daily Weather History Graph

Daily Weather History Graph

Search for Another Location

Airport:

Trip Planner

Search our weather history database for the weather conditions in past years. The results will help you decide how hot, cold, wet, or windy it might be!

Date:

Astronomy

Feb. 17, 2014 Rise Set
Actual Time 7:07 AM EST 5:50 PM EST
Civil Twilight 6:38 AM EST 6:18 PM EST
Nautical Twilight 6:06 AM EST 6:51 PM EST
Astronomical Twilight 5:34 AM EST 7:23 PM EST
Moon 8:46 PM EST (2/17) 8:04 AM EST (2/17)
Length of Visible Light 11h 39m
Length of Day
10h 42m
Waning Gibbous, 93% of the Moon is Illuminated
Feb 17
Waning Gibbous
Feb 22
Last Quarter
Mar 1
New
Mar 8
First Quarter
Mar 16
Full

Hourly Weather History & Observations

Time (EST) Temp. Windchill Dew Point Humidity Pressure Visibility Wind Dir Wind Speed Gust Speed Precip Events Conditions
12:12 AM 7.0 °F -5.7 °F 1.0 °F 77% 30.15 in 2.5 mi NW 8.1 mph - 0.00 in Snow Light Snow
12:18 AM 7.0 °F -4.5 °F 1.0 °F 77% 30.16 in 3.0 mi NW 6.9 mph - 0.00 in Snow Light Snow
12:32 AM 7.0 °F -6.6 °F 1.0 °F 77% 30.16 in 4.0 mi NW 9.2 mph - 0.00 in Snow Light Snow
12:53 AM 6.1 °F -7.8 °F -0.0 °F 76% 30.30 in 4.0 mi WNW 9.2 mph - 0.00 in Snow Light Snow
1:53 AM 3.0 °F -11.5 °F -2.0 °F 80% 30.31 in 10.0 mi NW 9.2 mph - 0.00 in   Mostly Cloudy
2:02 AM 3.0 °F -10.5 °F -2.0 °F 80% 30.19 in 10.0 mi NW 8.1 mph - N/A   Scattered Clouds
2:53 AM 1.0 °F -8.7 °F -2.9 °F 83% 30.32 in 10.0 mi NNW 4.6 mph - N/A   Clear
3:53 AM -5.1 °F - -9.9 °F 80% 30.33 in 10.0 mi Calm Calm - N/A   Clear
4:53 AM -5.1 °F - -11.9 °F 72% 30.34 in 10.0 mi Calm Calm - N/A   Clear
5:53 AM -6.0 °F - -11.9 °F 75% 30.38 in 10.0 mi Calm Calm - N/A   Clear
6:53 AM -9.0 °F - -16.1 °F 71% 30.38 in 4.0 mi Calm Calm - N/A   Haze
7:53 AM -8.0 °F - -14.1 °F 75% 30.40 in 5.0 mi Calm Calm - N/A   Haze
8:53 AM -0.0 °F - -5.1 °F 79% 30.44 in 10.0 mi Calm Calm - N/A   Clear
9:53 AM 7.0 °F -1.7 °F -0.0 °F 73% 30.43 in 10.0 mi ESE 4.6 mph - N/A   Clear
10:53 AM 12.9 °F 3.8 °F -0.9 °F 54% 30.40 in 10.0 mi East 5.8 mph - N/A   Clear
11:53 AM 17.1 °F 5.0 °F -7.1 °F 34% 30.38 in 10.0 mi ESE 10.4 mph - N/A   Clear
12:53 PM 19.9 °F 11.1 °F -2.9 °F 37% 30.33 in 10.0 mi SE 6.9 mph - 0.00 in   Clear
1:53 PM 24.1 °F 15.2 °F -2.9 °F 31% 30.30 in 10.0 mi SE 8.1 mph - N/A   Clear
2:53 PM 25.0 °F 15.5 °F -4.0 °F 28% 30.28 in 10.0 mi SSE 9.2 mph - N/A   Clear
3:53 PM 24.1 °F 11.5 °F -0.9 °F 34% 30.25 in 10.0 mi ESE 15.0 mph - N/A   Clear
4:53 PM 25.0 °F 13.1 °F -0.0 °F 34% 30.22 in 10.0 mi SSE 13.8 mph - N/A   Mostly Cloudy
5:53 PM 23.0 °F 11.1 °F 1.0 °F 39% 30.19 in 10.0 mi SE 12.7 mph 23.0 mph N/A   Partly Cloudy
6:53 PM 21.9 °F 6.9 °F 1.0 °F 40% 30.14 in 10.0 mi SE 19.6 mph 25.3 mph N/A   Scattered Clouds
7:53 PM 21.9 °F 7.3 °F 1.0 °F 40% 30.10 in 9.0 mi SE 18.4 mph 33.4 mph 0.00 in   Overcast
8:53 PM 23.0 °F 9.6 °F -2.0 °F 34% 30.09 in 10.0 mi SSE 16.1 mph 27.6 mph N/A   Overcast
9:53 PM 21.9 °F 6.5 °F -0.0 °F 38% 29.99 in 6.0 mi SE 20.7 mph 32.2 mph 0.00 in   Overcast
10:53 PM 23.0 °F 8.3 °F -0.9 °F 35% 29.95 in 7.0 mi SSE 19.6 mph 32.2 mph 0.00 in   Overcast
11:50 PM 21.2 °F 6.4 °F 3.2 °F 46% 29.82 in 2.5 mi SSE 18.4 mph 33.4 mph 0.00 in Snow Light Snow
11:53 PM 21.9 °F 7.8 °F 3.9 °F 46% 29.90 in 2.5 mi South 17.3 mph 29.9 mph 0.00 in Snow Light Snow